2023-126A (57693 NORAD) Tracking and Keplerian Element Data

This shows tracking and keplerian element data for the satellite.

Feedback or suggestion? Click here.




ElementValue
Catalog57693
Name2023-126A
Epoch Orbit48
Epoch Day239.29166517
Epoch Year2023
RAAN275.8352
Inclination53.0115
Eccentricity0.0006172
Argument of Perigee303.9815
Mean Anonmoly182.9122
Mean Motion14.75059735
Decay Rate3.257E-05
L11 57693U 23126A 23239.29166517 .00003257 00000+0 51037-3 0 9995
L22 57693 53.0115 275.8352 0006172 303.9815 182.9122 14.75059735 487



Live tracking and technical data element details for 2023-126A (NORAD 57693). 2023-126A can be tracked NOW for your location showing map with azimuth and elevation plus other details from your city location.







IsCatalogInMostPopularTable: catalog: 57693, numindb: 5
Update: records affected: 1



GetName: 57693 2023-126A

Hit Count: updated at: Tue, 26 Sep 2023 12:01:57 GMT